FENGYUN 1C DEB

Satellite information

Favourite Embed

Satellite Type and Status

DEBRISIN ORBIT

Key statistics

Satellite FENGYUN 1C DEB at a glance.

Uptime

9555

Days in orbit

Revolutions

≈ 14.3

Per day

Orbit

SSO

Sun Synchronous Orbit

Inclination

98.2

Latest

Satellite identification and parameters

Extended collection of information and parameters for FENGYUN 1C DEB.

Object identification

Identified? True

Debris? True

Object name: FENGYUN 1C DEB

International designator: 1999-025AGS

Object number (NORAD): 30480

Object ID (CCSDS): 30480

Country: PEOPLES REPUBLIC OF CHINA (PRC)

Current information (Y/N): Y

RCS size: SMALL

Orbital parameters

Period: 100.47 minutes

Inclination: 98.2328 deg

SMA: 7158.982 km

Apoapsis: 898.997 km

Periapsis: 662.697 km

RAAN: 209.1257 deg

Eccentricy: 0.0165037

Argument of periapsis: 264.3527 deg

Mean anomaly: 251.2137 deg

Mean motion: 14.33262932 rev/day

Mean motion (dot): 0.0000039 rev/day2

B* drag term: 0.00013647 1/REarth

Two-line elements (TLE)

Creation date: July 5, 2025, 5:45 p.m.

Reference frame: TEME

Reference center: EARTH

Epoch: July 5, 2025, 1:13 p.m. UTC

TLE line 0: 0 FENGYUN 1C DEB

TLE line 1: 1 30480U 99025AGS 25186.55076253 .00000390 00000-0 13647-3 0 9991

TLE line 2: 2 30480 98.2328 209.1257 0165037 264.3527 251.2137 14.33262932963730

Live tracking on map

Real-time ground track for satellite FENGYUN 1C DEB.

In-orbit conjunctions

A list of the most updated potential collisions computed for object FENGYUN 1C DEB.

Target Orbit TCA Probability of collision Miss distance Type
FENGYUN 1C DEB SSO 2025-04-01 18:18:14 0.0001792451 81.0 (m) DEBRIS
CZ-6A DEB LEO 2024-12-21 13:53:43 0.0005924 127.0 (m) DEBRIS
COSMOS 2251 DEB LEO 2024-10-23 21:43:25 0.0001000639 154.0 (m) DEBRIS

Associated space launch

Chinese polar orbiting meteorological satellite

FENGYUN 1C DEB was lifted into orbit during the mission ‘Long March 4B | Feng Yun 1C’, on board a Long March 4B space rocket.

The launch took place on May 10, 1999, 1:33 a.m. from Launch Complex 7.

For more information about the launch, click the button.

Launch to space Long March 4B | Feng Yun 1C
Long March 4B | Feng Yun 1C

Agency: N/A

Status: Launch Successful

Launch date: May 10, 1999, 1:33 a.m. UTC

Rocket: Long March 4B

Launch pad: Launch Complex 7

Location: Taiyuan Satellite Launch Center, People's Republic of China

...

Latest news about this satellite

There are no fresh news available about this satellite. Check back as we update our databases every day.


Newsletter sign-up

Weekly statistics, charts and insights to help you stay on top of the space industry.